Year,Month,Day,Hour,Minute,Value (Times are PST for temperature in C)
2017,09,14,00,00,11.10
2017,09,14,00,01,11.10
2017,09,14,00,02,11.00
2017,09,14,00,03,11.00
2017,09,14,00,04,11.00
2017,09,14,00,05,11.00
2017,09,14,00,06,11.00
2017,09,14,00,07,10.90
2017,09,14,00,08,10.90
2017,09,14,00,09,10.90
2017,09,14,00,10,10.90
2017,09,14,00,11,10.90
2017,09,14,00,12,10.90
2017,09,14,00,13,10.90
2017,09,14,00,14,10.90
2017,09,14,00,15,10.90
2017,09,14,00,16,10.90
2017,09,14,00,17,10.90
2017,09,14,00,18,10.80
2017,09,14,00,19,10.80
2017,09,14,00,20,10.80
2017,09,14,00,21,10.80
2017,09,14,00,22,10.80
2017,09,14,00,23,10.80
2017,09,14,00,24,10.70
2017,09,14,00,25,10.70
2017,09,14,00,26,10.70
2017,09,14,00,27,10.70
2017,09,14,00,28,10.70
2017,09,14,00,29,10.70
2017,09,14,00,30,10.70
2017,09,14,00,31,10.70
2017,09,14,00,32,10.60
2017,09,14,00,33,10.60
2017,09,14,00,34,10.60
2017,09,14,00,35,10.60
2017,09,14,00,36,10.50
2017,09,14,00,37,10.50
2017,09,14,00,38,10.40
2017,09,14,00,39,10.40
2017,09,14,00,40,10.30
2017,09,14,00,41,10.30
2017,09,14,00,42,10.30
2017,09,14,00,43,10.30
2017,09,14,00,44,10.30
2017,09,14,00,45,10.20
2017,09,14,00,46,10.20
2017,09,14,00,47,10.20
2017,09,14,00,48,10.10
2017,09,14,00,49,10.10
2017,09,14,00,50,10.10
2017,09,14,00,51,10.10
2017,09,14,00,52,10.00
2017,09,14,00,53,10.00
2017,09,14,00,54,9.90
2017,09,14,00,55,9.90
2017,09,14,00,56,9.80
2017,09,14,00,57,9.80
2017,09,14,00,58,9.80
2017,09,14,00,59,9.80
2017,09,14,01,00,9.80
2017,09,14,01,01,9.80
2017,09,14,01,02,9.70
2017,09,14,01,03,9.70
2017,09,14,01,04,9.70
2017,09,14,01,05,9.70
2017,09,14,01,06,9.70
2017,09,14,01,07,9.70
2017,09,14,01,08,9.70
2017,09,14,01,09,9.70
2017,09,14,01,10,9.70
2017,09,14,01,11,9.70
2017,09,14,01,12,9.70
2017,09,14,01,13,9.70
2017,09,14,01,14,9.70
2017,09,14,01,15,9.70
2017,09,14,01,16,9.70
2017,09,14,01,17,9.70
2017,09,14,01,18,9.60
2017,09,14,01,19,9.60
2017,09,14,01,20,9.60
2017,09,14,01,21,9.60
2017,09,14,01,22,9.60
2017,09,14,01,23,9.60
2017,09,14,01,24,9.50
2017,09,14,01,25,9.50
2017,09,14,01,26,9.50
2017,09,14,01,27,9.50
2017,09,14,01,28,9.50
2017,09,14,01,29,9.50
2017,09,14,01,30,9.40
2017,09,14,01,31,9.40
2017,09,14,01,32,9.40
2017,09,14,01,33,9.40
2017,09,14,01,34,9.40
2017,09,14,01,35,9.40
2017,09,14,01,36,9.30
2017,09,14,01,37,9.30
2017,09,14,01,38,9.30
2017,09,14,01,39,9.30
2017,09,14,01,40,9.30
2017,09,14,01,41,9.30
2017,09,14,01,42,9.30
2017,09,14,01,43,9.30
2017,09,14,01,44,9.20
2017,09,14,01,45,9.20
2017,09,14,01,46,9.20
2017,09,14,01,47,9.20
2017,09,14,01,48,9.20
2017,09,14,01,49,9.20
2017,09,14,01,50,9.20
2017,09,14,01,51,9.10
2017,09,14,01,52,9.10
2017,09,14,01,53,9.10
2017,09,14,01,54,9.10
2017,09,14,01,55,9.00
2017,09,14,01,56,9.00
2017,09,14,01,57,9.00
2017,09,14,01,58,9.00
2017,09,14,01,59,8.90
2017,09,14,02,00,8.90
2017,09,14,02,01,8.90
2017,09,14,02,02,8.90
2017,09,14,02,03,8.90
2017,09,14,02,04,8.90
2017,09,14,02,05,8.90
2017,09,14,02,06,8.80
2017,09,14,02,07,8.80
2017,09,14,02,08,8.80
2017,09,14,02,09,8.70
2017,09,14,02,10,8.70
2017,09,14,02,11,8.70
2017,09,14,02,12,8.70
2017,09,14,02,13,8.70
2017,09,14,02,14,8.60
2017,09,14,02,15,8.60
2017,09,14,02,16,8.60
2017,09,14,02,17,8.60
2017,09,14,02,18,8.50
2017,09,14,02,19,8.50
2017,09,14,02,20,8.50
2017,09,14,02,21,8.50
2017,09,14,02,22,8.40
2017,09,14,02,23,8.40
2017,09,14,02,24,8.40
2017,09,14,02,25,8.40
2017,09,14,02,26,8.40
2017,09,14,02,27,8.30
2017,09,14,02,28,8.30
2017,09,14,02,29,8.30
2017,09,14,02,30,8.30
2017,09,14,02,31,8.30
2017,09,14,02,32,8.30
2017,09,14,02,33,8.30
2017,09,14,02,34,8.20
2017,09,14,02,35,8.20
2017,09,14,02,36,8.20
2017,09,14,02,37,8.20
2017,09,14,02,38,8.20
2017,09,14,02,39,8.20
2017,09,14,02,40,8.20
2017,09,14,02,41,8.20
2017,09,14,02,42,8.20
2017,09,14,02,43,8.20
2017,09,14,02,44,8.20
2017,09,14,02,45,8.20
2017,09,14,02,46,8.20
2017,09,14,02,47,8.20
2017,09,14,02,48,8.20
2017,09,14,02,49,8.20
2017,09,14,02,50,8.20
2017,09,14,02,51,8.10
2017,09,14,02,52,8.10
2017,09,14,02,53,8.10
2017,09,14,02,54,8.10
2017,09,14,02,55,8.10
2017,09,14,02,56,8.00
2017,09,14,02,57,8.00
2017,09,14,02,58,8.00
2017,09,14,02,59,8.00
2017,09,14,03,00,8.00
2017,09,14,03,01,8.00
2017,09,14,03,02,8.00
2017,09,14,03,03,8.00
2017,09,14,03,04,8.00
2017,09,14,03,05,8.00
2017,09,14,03,06,7.90
2017,09,14,03,07,7.90
2017,09,14,03,08,7.90
2017,09,14,03,09,7.90
2017,09,14,03,10,7.90
2017,09,14,03,11,7.90
2017,09,14,03,12,7.90
2017,09,14,03,13,7.90
2017,09,14,03,14,7.90
2017,09,14,03,15,7.90
2017,09,14,03,16,7.90
2017,09,14,03,17,7.90
2017,09,14,03,18,7.90
2017,09,14,03,19,7.90
2017,09,14,03,20,7.90
2017,09,14,03,21,7.90
2017,09,14,03,22,7.80
2017,09,14,03,23,7.80
2017,09,14,03,24,7.80
2017,09,14,03,25,7.80
2017,09,14,03,26,7.80
2017,09,14,03,27,7.80
2017,09,14,03,28,7.70
2017,09,14,03,29,7.70
2017,09,14,03,30,7.70
2017,09,14,03,31,7.70
2017,09,14,03,32,7.70
2017,09,14,03,33,7.70
2017,09,14,03,34,7.60
2017,09,14,03,35,7.60
2017,09,14,03,36,7.60
2017,09,14,03,37,7.60
2017,09,14,03,38,7.50
2017,09,14,03,39,7.50
2017,09,14,03,40,7.50
2017,09,14,03,41,7.40
2017,09,14,03,42,7.40
2017,09,14,03,43,7.40
2017,09,14,03,44,7.30
2017,09,14,03,45,7.30
2017,09,14,03,46,7.30
2017,09,14,03,47,7.30
2017,09,14,03,48,7.30
2017,09,14,03,49,7.20
2017,09,14,03,50,7.20
2017,09,14,03,51,7.20
2017,09,14,03,52,7.20
2017,09,14,03,53,7.20
2017,09,14,03,54,7.20
2017,09,14,03,55,7.20
2017,09,14,03,56,7.20
2017,09,14,03,57,7.20
2017,09,14,03,58,7.20
2017,09,14,03,59,7.20
2017,09,14,04,00,7.10
2017,09,14,04,01,7.10
2017,09,14,04,02,7.10
2017,09,14,04,03,7.10
2017,09,14,04,04,7.00
2017,09,14,04,05,7.00
2017,09,14,04,06,7.00
2017,09,14,04,07,7.00
2017,09,14,04,08,7.00
2017,09,14,04,09,7.00
2017,09,14,04,10,6.90
2017,09,14,04,11,6.90
2017,09,14,04,12,6.90
2017,09,14,04,13,6.90
2017,09,14,04,14,6.90
2017,09,14,04,15,6.90
2017,09,14,04,16,6.90
2017,09,14,04,17,6.90
2017,09,14,04,18,6.90
2017,09,14,04,19,6.90
2017,09,14,04,20,6.90
2017,09,14,04,21,6.90
2017,09,14,04,22,6.90
2017,09,14,04,23,6.90
2017,09,14,04,24,6.90
2017,09,14,04,25,6.90
2017,09,14,04,26,6.90
2017,09,14,04,27,6.90
2017,09,14,04,28,6.90
2017,09,14,04,29,6.90
2017,09,14,04,30,6.90
2017,09,14,04,31,6.90
2017,09,14,04,32,6.90
2017,09,14,04,33,6.90
2017,09,14,04,34,6.80
2017,09,14,04,35,6.90
2017,09,14,04,36,6.90
2017,09,14,04,37,6.90
2017,09,14,04,38,6.90
2017,09,14,04,39,6.90
2017,09,14,04,40,6.90
2017,09,14,04,41,6.90
2017,09,14,04,42,6.90
2017,09,14,04,43,6.90
2017,09,14,04,44,6.90
2017,09,14,04,45,6.90
2017,09,14,04,46,6.80
2017,09,14,04,47,6.80
2017,09,14,04,48,6.80
2017,09,14,04,49,6.80
2017,09,14,04,50,6.80
2017,09,14,04,51,6.80
2017,09,14,04,52,6.80
2017,09,14,04,53,6.80
2017,09,14,04,54,6.70
2017,09,14,04,55,6.70
2017,09,14,04,56,6.70
2017,09,14,04,57,6.70
2017,09,14,04,58,6.70
2017,09,14,04,59,6.70
2017,09,14,05,00,6.70
2017,09,14,05,01,6.70
2017,09,14,05,02,6.70
2017,09,14,05,03,6.70
2017,09,14,05,04,6.60
2017,09,14,05,05,6.60
2017,09,14,05,06,6.60
2017,09,14,05,07,6.60
2017,09,14,05,08,6.60
2017,09,14,05,09,6.50
2017,09,14,05,10,6.50
2017,09,14,05,11,6.50
2017,09,14,05,12,6.50
2017,09,14,05,13,6.40
2017,09,14,05,14,6.40
2017,09,14,05,15,6.40
2017,09,14,05,16,6.40
2017,09,14,05,17,6.40
2017,09,14,05,18,6.40
2017,09,14,05,19,6.40
2017,09,14,05,20,6.40
2017,09,14,05,21,6.40
2017,09,14,05,22,6.40
2017,09,14,05,23,6.40
2017,09,14,05,24,6.40
2017,09,14,05,25,6.40
2017,09,14,05,26,6.40
2017,09,14,05,27,6.30
2017,09,14,05,28,6.30
2017,09,14,05,29,6.30
2017,09,14,05,30,6.30
2017,09,14,05,31,6.30
2017,09,14,05,32,6.30
2017,09,14,05,33,6.30
2017,09,14,05,34,6.30
2017,09,14,05,35,6.30
2017,09,14,05,36,6.30
2017,09,14,05,37,6.30
2017,09,14,05,38,6.30
2017,09,14,05,39,6.30
2017,09,14,05,40,6.20
2017,09,14,05,41,6.20
2017,09,14,05,42,6.20
2017,09,14,05,43,6.20
2017,09,14,05,44,6.20
2017,09,14,05,45,6.20
2017,09,14,05,46,6.20
2017,09,14,05,47,6.20
2017,09,14,05,48,6.20
2017,09,14,05,49,6.20
2017,09,14,05,50,6.20
2017,09,14,05,51,6.20
2017,09,14,05,52,6.20
2017,09,14,05,53,6.20
2017,09,14,05,54,6.20
2017,09,14,05,55,6.10
2017,09,14,05,56,6.10
2017,09,14,05,57,6.10
2017,09,14,05,58,6.10
2017,09,14,05,59,6.10
2017,09,14,06,00,6.10
2017,09,14,06,01,6.10
2017,09,14,06,02,6.10
2017,09,14,06,03,6.10
2017,09,14,06,04,6.10
2017,09,14,06,05,6.10
2017,09,14,06,06,6.10
2017,09,14,06,07,6.10
2017,09,14,06,08,6.10
2017,09,14,06,09,6.00
2017,09,14,06,10,6.00
2017,09,14,06,11,6.00
2017,09,14,06,12,6.00
2017,09,14,06,13,6.00
2017,09,14,06,14,6.00
2017,09,14,06,15,6.00
2017,09,14,06,16,5.90
2017,09,14,06,17,6.00
2017,09,14,06,18,5.90
2017,09,14,06,19,5.90
2017,09,14,06,20,5.90
2017,09,14,06,21,5.90
2017,09,14,06,22,5.90
2017,09,14,06,23,5.90
2017,09,14,06,24,5.90
2017,09,14,06,25,5.90
2017,09,14,06,26,5.80
2017,09,14,06,27,5.80
2017,09,14,06,28,5.80
2017,09,14,06,29,5.80
2017,09,14,06,30,5.80
2017,09,14,06,31,5.80
2017,09,14,06,32,5.80
2017,09,14,06,33,5.80
2017,09,14,06,34,5.70
2017,09,14,06,35,5.70
2017,09,14,06,36,5.70
2017,09,14,06,37,5.70
2017,09,14,06,38,5.70
2017,09,14,06,39,5.70
2017,09,14,06,40,5.70
2017,09,14,06,41,5.70
2017,09,14,06,42,5.70
2017,09,14,06,43,5.70
2017,09,14,06,44,5.70
2017,09,14,06,45,5.70
2017,09,14,06,46,5.70
2017,09,14,06,47,5.70
2017,09,14,06,48,5.70
2017,09,14,06,49,5.70
2017,09,14,06,50,5.70
2017,09,14,06,51,5.70
2017,09,14,06,52,5.70
2017,09,14,06,53,5.70
2017,09,14,06,54,5.70
2017,09,14,06,55,5.70
2017,09,14,06,56,5.70
2017,09,14,06,57,5.70
2017,09,14,06,58,5.70
2017,09,14,06,59,5.70
2017,09,14,07,00,5.60
2017,09,14,07,01,5.60
2017,09,14,07,02,5.60
2017,09,14,07,03,5.60
2017,09,14,07,04,5.60
2017,09,14,07,05,5.60
2017,09,14,07,06,5.60
2017,09,14,07,07,5.60
2017,09,14,07,08,5.60
2017,09,14,07,09,5.60
2017,09,14,07,10,5.60
2017,09,14,07,11,5.60
2017,09,14,07,12,5.60
2017,09,14,07,13,5.60
2017,09,14,07,14,5.60
2017,09,14,07,15,5.60
2017,09,14,07,16,5.60
2017,09,14,07,17,5.60
2017,09,14,07,18,5.50
2017,09,14,07,19,5.60
2017,09,14,07,20,5.60
2017,09,14,07,21,5.60
2017,09,14,07,22,5.50
2017,09,14,07,23,5.50
2017,09,14,07,24,5.50
2017,09,14,07,25,5.50
2017,09,14,07,26,5.50
2017,09,14,07,27,5.50
2017,09,14,07,28,5.50
2017,09,14,07,29,5.50
2017,09,14,07,30,5.50
2017,09,14,07,31,5.50
2017,09,14,07,32,5.50
2017,09,14,07,33,5.50
2017,09,14,07,34,5.50
2017,09,14,07,35,5.50
2017,09,14,07,36,5.50
2017,09,14,07,37,5.50
2017,09,14,07,38,5.60
2017,09,14,07,39,5.60
2017,09,14,07,40,5.60
2017,09,14,07,41,5.60
2017,09,14,07,42,5.60
2017,09,14,07,43,5.70
2017,09,14,07,44,5.70
2017,09,14,07,45,5.70
2017,09,14,07,46,5.70
2017,09,14,07,47,5.70
2017,09,14,07,48,5.80
2017,09,14,07,49,5.80
2017,09,14,07,50,5.80
2017,09,14,07,51,5.80
2017,09,14,07,52,5.80
2017,09,14,07,53,5.80
2017,09,14,07,54,5.80
2017,09,14,07,55,5.90
2017,09,14,07,56,5.90
2017,09,14,07,57,5.90
2017,09,14,07,58,5.90
2017,09,14,07,59,6.00
2017,09,14,08,00,6.00
2017,09,14,08,01,6.00
2017,09,14,08,02,6.10
2017,09,14,08,03,6.10
2017,09,14,08,04,6.20
2017,09,14,08,05,6.20
2017,09,14,08,06,6.30
2017,09,14,08,07,6.30
2017,09,14,08,08,6.30
2017,09,14,08,09,6.40
2017,09,14,08,10,6.40
2017,09,14,08,11,6.50
2017,09,14,08,12,6.50
2017,09,14,08,13,6.50
2017,09,14,08,14,6.50
2017,09,14,08,15,6.60
2017,09,14,08,16,6.60
2017,09,14,08,17,6.70
2017,09,14,08,18,6.70
2017,09,14,08,19,6.80
2017,09,14,08,20,6.80
2017,09,14,08,21,6.90
2017,09,14,08,22,6.90
2017,09,14,08,23,7.00
2017,09,14,08,24,7.00
2017,09,14,08,25,7.00
2017,09,14,08,26,7.10
2017,09,14,08,27,7.10
2017,09,14,08,28,7.20
2017,09,14,08,29,7.20
2017,09,14,08,30,7.20
2017,09,14,08,31,7.30
2017,09,14,08,32,7.30
2017,09,14,08,33,7.40
2017,09,14,08,34,7.40
2017,09,14,08,35,7.50
2017,09,14,08,36,7.60
2017,09,14,08,37,7.60
2017,09,14,08,38,7.70
2017,09,14,08,39,7.80
2017,09,14,08,40,7.90
2017,09,14,08,41,8.00
2017,09,14,08,42,8.10
2017,09,14,08,43,8.10
2017,09,14,08,44,8.20
2017,09,14,08,45,8.40
2017,09,14,08,46,8.50
2017,09,14,08,47,8.70
2017,09,14,08,48,8.90
2017,09,14,08,49,9.00
2017,09,14,08,50,9.20
2017,09,14,08,51,9.30
2017,09,14,08,52,9.40
2017,09,14,08,53,9.60
2017,09,14,08,54,9.70
2017,09,14,08,55,9.80
2017,09,14,08,56,9.80
2017,09,14,08,57,9.80
2017,09,14,08,58,9.90
2017,09,14,08,59,9.90
2017,09,14,09,00,10.00
2017,09,14,09,01,10.10
2017,09,14,09,02,10.20
2017,09,14,09,03,10.20
2017,09,14,09,04,10.30
2017,09,14,09,05,10.40
2017,09,14,09,06,10.50
2017,09,14,09,07,10.50
2017,09,14,09,08,10.60
2017,09,14,09,09,10.70
2017,09,14,09,10,10.70
2017,09,14,09,11,10.70
2017,09,14,09,12,10.80
2017,09,14,09,13,10.90
2017,09,14,09,14,10.90
2017,09,14,09,15,11.00
2017,09,14,09,16,11.00
2017,09,14,09,17,11.10
2017,09,14,09,18,11.20
2017,09,14,09,19,11.30
2017,09,14,09,20,11.30
2017,09,14,09,21,11.40
2017,09,14,09,22,11.40
2017,09,14,09,23,11.50
2017,09,14,09,24,11.60
2017,09,14,09,25,11.60
2017,09,14,09,26,11.70
2017,09,14,09,27,11.80
2017,09,14,09,28,11.80
2017,09,14,09,29,11.90
2017,09,14,09,30,11.90
2017,09,14,09,31,11.90
2017,09,14,09,32,12.00
2017,09,14,09,33,12.10
2017,09,14,09,34,12.20
2017,09,14,09,35,12.30
2017,09,14,09,36,12.40
2017,09,14,09,37,12.40
2017,09,14,09,38,12.60
2017,09,14,09,39,12.70
2017,09,14,09,40,12.80
2017,09,14,09,41,12.90
2017,09,14,09,42,12.90
2017,09,14,09,43,13.00
2017,09,14,09,44,13.10
2017,09,14,09,45,13.10
2017,09,14,09,46,13.10
2017,09,14,09,47,13.20
2017,09,14,09,48,13.20
2017,09,14,09,49,13.30
2017,09,14,09,50,13.40
2017,09,14,09,51,13.40
2017,09,14,09,52,13.40
2017,09,14,09,53,13.50
2017,09,14,09,54,13.70
2017,09,14,09,55,13.80
2017,09,14,09,56,13.90
2017,09,14,09,57,14.00
2017,09,14,09,58,14.00
2017,09,14,09,59,14.10
2017,09,14,10,00,14.20
2017,09,14,10,01,14.30
2017,09,14,10,02,14.40
2017,09,14,10,03,14.50
2017,09,14,10,04,14.50
2017,09,14,10,05,14.60
2017,09,14,10,06,14.60
2017,09,14,10,07,14.70
2017,09,14,10,08,14.80
2017,09,14,10,09,14.90
2017,09,14,10,10,15.00
2017,09,14,10,11,15.00
2017,09,14,10,12,15.00
2017,09,14,10,13,15.10
2017,09,14,10,14,15.10
2017,09,14,10,15,15.20
2017,09,14,10,16,15.30
2017,09,14,10,17,15.30
2017,09,14,10,18,15.30
2017,09,14,10,19,15.40
2017,09,14,10,20,15.40
2017,09,14,10,21,15.40
2017,09,14,10,22,15.40
2017,09,14,10,23,15.50
2017,09,14,10,24,15.50
2017,09,14,10,25,15.60
2017,09,14,10,26,15.70
2017,09,14,10,27,15.70
2017,09,14,10,28,15.70
2017,09,14,10,29,15.70
2017,09,14,10,30,15.70
2017,09,14,10,31,15.70
2017,09,14,10,32,15.70
2017,09,14,10,33,15.70
2017,09,14,10,34,15.80
2017,09,14,10,35,15.90
2017,09,14,10,36,16.00
2017,09,14,10,37,16.10
2017,09,14,10,38,16.20
2017,09,14,10,39,16.30
2017,09,14,10,40,16.40
2017,09,14,10,41,16.50
2017,09,14,10,42,16.60
2017,09,14,10,43,16.70
2017,09,14,10,44,16.80
2017,09,14,10,45,16.90
2017,09,14,10,46,17.00
2017,09,14,10,47,17.10
2017,09,14,10,48,17.20
2017,09,14,10,49,17.20
2017,09,14,10,50,17.30
2017,09,14,10,51,17.30
2017,09,14,10,52,17.30
2017,09,14,10,53,17.30
2017,09,14,10,54,17.40
2017,09,14,10,55,17.40
2017,09,14,10,56,17.50
2017,09,14,10,57,17.50
2017,09,14,10,58,17.60
2017,09,14,10,59,17.60
2017,09,14,11,00,17.70
2017,09,14,11,01,17.80
2017,09,14,11,02,17.80
2017,09,14,11,03,17.80
2017,09,14,11,04,17.80
2017,09,14,11,05,17.90
2017,09,14,11,06,18.00
2017,09,14,11,07,18.10
2017,09,14,11,08,18.10
2017,09,14,11,09,18.20
2017,09,14,11,10,18.30
2017,09,14,11,11,18.30
2017,09,14,11,12,18.30
2017,09,14,11,13,18.30
2017,09,14,11,14,18.40
2017,09,14,11,15,18.40
2017,09,14,11,16,18.40
2017,09,14,11,17,18.40
2017,09,14,11,18,18.30
2017,09,14,11,19,18.30
2017,09,14,11,20,18.30
2017,09,14,11,21,18.30
2017,09,14,11,22,18.30
2017,09,14,11,23,18.40
2017,09,14,11,24,18.40
2017,09,14,11,25,18.50
2017,09,14,11,26,18.60
2017,09,14,11,27,18.60
2017,09,14,11,28,18.70
2017,09,14,11,29,18.80
2017,09,14,11,30,19.00
2017,09,14,11,31,19.10
2017,09,14,11,32,19.20
2017,09,14,11,33,19.30
2017,09,14,11,34,19.40
2017,09,14,11,35,19.50
2017,09,14,11,36,19.50
2017,09,14,11,37,19.60
2017,09,14,11,38,19.60
2017,09,14,11,39,19.60
2017,09,14,11,40,19.70
2017,09,14,11,41,19.70
2017,09,14,11,42,19.80
2017,09,14,11,43,19.80
2017,09,14,11,44,19.80
2017,09,14,11,45,19.90
2017,09,14,11,46,19.90
2017,09,14,11,47,19.90
2017,09,14,11,48,20.00
2017,09,14,11,49,20.00
2017,09,14,11,50,20.10
2017,09,14,11,51,20.10
2017,09,14,11,52,20.20
2017,09,14,11,53,20.20
2017,09,14,11,54,20.30
2017,09,14,11,55,20.30
2017,09,14,11,56,20.30
2017,09,14,11,57,20.30
2017,09,14,11,58,20.30
2017,09,14,11,59,20.30
2017,09,14,12,00,20.40
2017,09,14,12,01,20.60
2017,09,14,12,02,20.60
2017,09,14,12,03,20.70
2017,09,14,12,04,20.80
2017,09,14,12,05,20.90
2017,09,14,12,06,21.00
2017,09,14,12,07,21.10
2017,09,14,12,08,21.20
2017,09,14,12,09,21.20
2017,09,14,12,10,21.20
2017,09,14,12,11,21.20
2017,09,14,12,12,21.30
2017,09,14,12,13,21.20
2017,09,14,12,14,21.20
2017,09,14,12,15,21.20
2017,09,14,12,16,21.20
2017,09,14,12,17,21.20
2017,09,14,12,18,21.20
2017,09,14,12,19,21.30
2017,09,14,12,20,21.30
2017,09,14,12,21,21.30
2017,09,14,12,22,21.30
2017,09,14,12,23,21.30
2017,09,14,12,24,21.40
2017,09,14,12,25,21.40
2017,09,14,12,26,21.40
2017,09,14,12,27,21.40
2017,09,14,12,28,21.40
2017,09,14,12,29,21.50
2017,09,14,12,30,21.50
2017,09,14,12,31,21.50
2017,09,14,12,32,21.50
2017,09,14,12,33,21.60
2017,09,14,12,34,21.60
2017,09,14,12,35,21.60
2017,09,14,12,36,21.70
2017,09,14,12,37,21.80
2017,09,14,12,38,21.90
2017,09,14,12,39,21.90
2017,09,14,12,40,22.00
2017,09,14,12,41,22.10
2017,09,14,12,42,22.20
2017,09,14,12,43,22.20
2017,09,14,12,44,22.20
2017,09,14,12,45,22.20
2017,09,14,12,46,22.20
2017,09,14,12,47,22.20
2017,09,14,12,48,22.20
2017,09,14,12,49,22.20
2017,09,14,12,50,22.20
2017,09,14,12,51,22.20
2017,09,14,12,52,22.30
2017,09,14,12,53,22.30
2017,09,14,12,54,22.40
2017,09,14,12,55,22.50
2017,09,14,12,56,22.60
2017,09,14,12,57,22.70
2017,09,14,12,58,22.70
2017,09,14,12,59,22.70
2017,09,14,13,00,22.80
2017,09,14,13,01,22.90
2017,09,14,13,02,22.90
2017,09,14,13,03,22.90
2017,09,14,13,04,22.90
2017,09,14,13,05,22.90
2017,09,14,13,06,22.80
2017,09,14,13,07,22.90
2017,09,14,13,08,22.90
2017,09,14,13,09,23.00
2017,09,14,13,10,23.10
2017,09,14,13,11,23.20
2017,09,14,13,12,23.20
2017,09,14,13,13,23.30
2017,09,14,13,14,23.30
2017,09,14,13,15,23.30
2017,09,14,13,16,23.20
2017,09,14,13,17,23.10
2017,09,14,13,18,23.10
2017,09,14,13,19,23.00
2017,09,14,13,20,23.00
2017,09,14,13,21,22.90
2017,09,14,13,22,22.90
2017,09,14,13,23,22.90
2017,09,14,13,24,22.90
2017,09,14,13,25,22.90
2017,09,14,13,26,23.00
2017,09,14,13,27,23.00
2017,09,14,13,28,23.10
2017,09,14,13,29,23.10
2017,09,14,13,30,23.20
2017,09,14,13,31,23.30
2017,09,14,13,32,23.40
2017,09,14,13,33,23.40
2017,09,14,13,34,23.40
2017,09,14,13,35,23.50
2017,09,14,13,36,23.50
2017,09,14,13,37,23.50
2017,09,14,13,38,23.50
2017,09,14,13,39,23.40
2017,09,14,13,40,23.30
2017,09,14,13,41,23.20
2017,09,14,13,42,23.20
2017,09,14,13,43,23.20
2017,09,14,13,44,23.20
2017,09,14,13,45,23.30
2017,09,14,13,46,23.40
2017,09,14,13,47,23.50
2017,09,14,13,48,23.60
2017,09,14,13,49,23.70
2017,09,14,13,50,23.80
2017,09,14,13,51,23.80
2017,09,14,13,52,23.80
2017,09,14,13,53,23.70
2017,09,14,13,54,23.60
2017,09,14,13,55,23.60
2017,09,14,13,56,23.60
2017,09,14,13,57,23.60
2017,09,14,13,58,23.70
2017,09,14,13,59,23.70
2017,09,14,14,00,23.60
2017,09,14,14,01,23.60
2017,09,14,14,02,23.60
2017,09,14,14,03,23.60
2017,09,14,14,04,23.70
2017,09,14,14,05,23.60
2017,09,14,14,06,23.60
2017,09,14,14,07,23.60
2017,09,14,14,08,23.60
2017,09,14,14,09,23.70
2017,09,14,14,10,23.70
2017,09,14,14,11,23.80
2017,09,14,14,12,23.80
2017,09,14,14,13,23.90
2017,09,14,14,14,23.90
2017,09,14,14,15,23.90
2017,09,14,14,16,23.90
2017,09,14,14,17,23.90
2017,09,14,14,18,23.90
2017,09,14,14,19,24.00
2017,09,14,14,20,24.00
2017,09,14,14,21,24.10
2017,09,14,14,22,24.10
2017,09,14,14,23,24.00
2017,09,14,14,24,23.90
2017,09,14,14,25,23.90
2017,09,14,14,26,23.80
2017,09,14,14,27,23.80
2017,09,14,14,28,23.80
2017,09,14,14,29,23.80
2017,09,14,14,30,23.80
2017,09,14,14,31,23.80
2017,09,14,14,32,23.80
2017,09,14,14,33,23.80
2017,09,14,14,34,23.80
2017,09,14,14,35,23.80
2017,09,14,14,36,23.80
2017,09,14,14,37,23.90
2017,09,14,14,38,23.90
2017,09,14,14,39,23.90
2017,09,14,14,40,23.90
2017,09,14,14,41,23.90
2017,09,14,14,42,24.00
2017,09,14,14,43,24.00
2017,09,14,14,44,24.00
2017,09,14,14,45,24.00
2017,09,14,14,46,24.10
2017,09,14,14,47,24.10
2017,09,14,14,48,24.10
2017,09,14,14,49,24.10
2017,09,14,14,50,24.10
2017,09,14,14,51,24.00
2017,09,14,14,52,24.00
2017,09,14,14,53,23.90
2017,09,14,14,54,23.90
2017,09,14,14,55,23.90
2017,09,14,14,56,23.90
2017,09,14,14,57,23.90
2017,09,14,14,58,23.80
2017,09,14,14,59,23.90
2017,09,14,15,00,23.90
2017,09,14,15,01,23.90
2017,09,14,15,02,23.80
2017,09,14,15,03,23.80
2017,09,14,15,04,23.80
2017,09,14,15,05,23.80
2017,09,14,15,06,23.90
2017,09,14,15,07,23.90
2017,09,14,15,08,23.90
2017,09,14,15,09,23.90
2017,09,14,15,10,23.80
2017,09,14,15,11,23.80
2017,09,14,15,12,23.80
2017,09,14,15,13,23.90
2017,09,14,15,14,23.90
2017,09,14,15,15,23.90
2017,09,14,15,16,23.90
2017,09,14,15,17,23.90
2017,09,14,15,18,23.90
2017,09,14,15,19,23.90
2017,09,14,15,20,23.90
2017,09,14,15,21,24.00
2017,09,14,15,22,24.10
2017,09,14,15,23,24.10
2017,09,14,15,24,24.20
2017,09,14,15,25,24.20
2017,09,14,15,26,24.20
2017,09,14,15,27,24.20
2017,09,14,15,28,24.30
2017,09,14,15,29,24.30
2017,09,14,15,30,24.30
2017,09,14,15,31,24.30
2017,09,14,15,32,24.20
2017,09,14,15,33,24.20
2017,09,14,15,34,24.20
2017,09,14,15,35,24.30
2017,09,14,15,36,24.30
2017,09,14,15,37,24.30
2017,09,14,15,38,24.30
2017,09,14,15,39,24.30
2017,09,14,15,40,24.20
2017,09,14,15,41,24.20
2017,09,14,15,42,24.20
2017,09,14,15,43,24.20
2017,09,14,15,44,24.30
2017,09,14,15,45,24.30
2017,09,14,15,46,24.40
2017,09,14,15,47,24.40
2017,09,14,15,48,24.40
2017,09,14,15,49,24.40
2017,09,14,15,50,24.40
2017,09,14,15,51,24.40
2017,09,14,15,52,24.50
2017,09,14,15,53,24.50
2017,09,14,15,54,24.50
2017,09,14,15,55,24.50
2017,09,14,15,56,24.50
2017,09,14,15,57,24.50
2017,09,14,15,58,24.60
2017,09,14,15,59,24.60
2017,09,14,16,00,24.60
2017,09,14,16,01,24.60
2017,09,14,16,02,24.60
2017,09,14,16,03,24.60
2017,09,14,16,04,24.60
2017,09,14,16,05,24.50
2017,09,14,16,06,24.50
2017,09,14,16,07,24.50
2017,09,14,16,08,24.50
2017,09,14,16,09,24.50
2017,09,14,16,10,24.50
2017,09,14,16,11,24.50
2017,09,14,16,12,24.50
2017,09,14,16,13,24.50
2017,09,14,16,14,24.50
2017,09,14,16,15,24.40
2017,09,14,16,16,24.40
2017,09,14,16,17,24.40
2017,09,14,16,18,24.40
2017,09,14,16,19,24.40
2017,09,14,16,20,24.40
2017,09,14,16,21,24.30
2017,09,14,16,22,24.30
2017,09,14,16,23,24.40
2017,09,14,16,24,24.40
2017,09,14,16,25,24.50
2017,09,14,16,26,24.60
2017,09,14,16,27,24.70
2017,09,14,16,28,24.70
2017,09,14,16,29,24.80
2017,09,14,16,30,24.80
2017,09,14,16,31,24.80
2017,09,14,16,32,24.80
2017,09,14,16,33,24.90
2017,09,14,16,34,24.90
2017,09,14,16,35,24.90
2017,09,14,16,36,24.90
2017,09,14,16,37,24.80
2017,09,14,16,38,24.80
2017,09,14,16,39,24.80
2017,09,14,16,40,24.80
2017,09,14,16,41,24.70
2017,09,14,16,42,24.70
2017,09,14,16,43,24.70
2017,09,14,16,44,24.70
2017,09,14,16,45,24.70
2017,09,14,16,46,24.70
2017,09,14,16,47,24.80
2017,09,14,16,48,24.80
2017,09,14,16,49,24.80
2017,09,14,16,50,24.80
2017,09,14,16,51,24.80
2017,09,14,16,52,24.90
2017,09,14,16,53,24.90
2017,09,14,16,54,24.90
2017,09,14,16,55,25.00
2017,09,14,16,56,25.10
2017,09,14,16,57,25.00
2017,09,14,16,58,25.00
2017,09,14,16,59,25.10
2017,09,14,17,00,25.10
2017,09,14,17,01,25.10
2017,09,14,17,02,25.10
2017,09,14,17,03,25.10
2017,09,14,17,04,25.00
2017,09,14,17,05,25.00
2017,09,14,17,06,25.00
2017,09,14,17,07,25.00
2017,09,14,17,08,25.00
2017,09,14,17,09,25.00
2017,09,14,17,10,25.10
2017,09,14,17,11,25.10
2017,09,14,17,12,25.10
2017,09,14,17,13,25.10
2017,09,14,17,14,25.00
2017,09,14,17,15,25.00
2017,09,14,17,16,25.00
2017,09,14,17,17,24.90
2017,09,14,17,18,24.90
2017,09,14,17,19,24.90
2017,09,14,17,20,24.90
2017,09,14,17,21,24.90
2017,09,14,17,22,24.90
2017,09,14,17,23,24.90
2017,09,14,17,24,24.90
2017,09,14,17,25,24.90
2017,09,14,17,26,24.90
2017,09,14,17,27,24.90
2017,09,14,17,28,24.90
2017,09,14,17,29,24.90
2017,09,14,17,30,25.00
2017,09,14,17,31,25.00
2017,09,14,17,32,24.90
2017,09,14,17,33,24.90
2017,09,14,17,34,24.90
2017,09,14,17,35,24.90
2017,09,14,17,36,24.80
2017,09,14,17,37,24.80
2017,09,14,17,38,24.90
2017,09,14,17,39,24.80
2017,09,14,17,40,24.80